WetterOnline ( https://www.wetteronline.de )

Wetter aktuell Bremen

Aktuelles Wetter: Bremen/Flughafen (5m)

6-stündlich | Neueste Meldungen
Ortszeit Temperatur Wetter
Fr, 24.05. 2:00 12.0° C Nebel
Do, 23.05. 20:00 18.8° C wolkenlos
Do, 23.05. 14:00 18.9° C bewölkt
Do, 23.05. 8:00 14.6° C leicht bewölkt
Do, 23.05. 2:00 13.7° C bedeckt
Mi, 22.05. 20:00 16.2° C bedeckt
Mi, 22.05. 14:00 16.7° C leichter Regen
Mi, 22.05. 8:00 15.4° C Sprühregen
Ortszeit Temperatur Wetter
Fr, 24.05. 6:30 11.7° C wolkenlos
Fr, 24.05. 6:10 10.7° C wolkenlos
Fr, 24.05. 6:00 10.5° C Nebel
Fr, 24.05. 5:50 10.5° C Dunst
Fr, 24.05. 5:40 10.1° C Dunst
Fr, 24.05. 5:30 9.8° C Nebel
Fr, 24.05. 5:00 10.2° C Nebel
Fr, 24.05. 4:30 9.6° C Nebel
Fr, 24.05. 4:00 10.4° C Nebel
Fr, 24.05. 3:30 10.9° C Nebel
Fr, 24.05. 3:00 12.2° C wolkenlos
Fr, 24.05. 2:30 11.7° C leicht bewölkt
Ortszeit Relative Feuchte Sichtweite
Fr, 24.05. 2:00 99% 5.0 km
Do, 23.05. 20:00 63% 50 km
Do, 23.05. 14:00 63% 40 km
Do, 23.05. 8:00 84% 19 km
Do, 23.05. 2:00 96% 8 km
Mi, 22.05. 20:00 90% 14 km
Mi, 22.05. 14:00 87% 19 km
Mi, 22.05. 8:00 99% 18 km
Ortszeit Relative Feuchte Sichtweite
Fr, 24.05. 6:30 97% 4.3 km
Fr, 24.05. 6:10 97% -
Fr, 24.05. 6:00 100% 5.0 km
Fr, 24.05. 5:50 100% -
Fr, 24.05. 5:40 100% -
Fr, 24.05. 5:30 99% 1.4 km
Fr, 24.05. 5:00 99% 1.7 km
Fr, 24.05. 4:30 100% 0.6 km
Fr, 24.05. 4:00 98% 0.2 km
Fr, 24.05. 3:30 100% 0.4 km
Fr, 24.05. 3:00 95% 7 km
Fr, 24.05. 2:30 99% 9 km
Ortszeit Niederschlagsmenge Niederschlagsart
Fr, 24.05. 2:00 0.0 l/m2 in 6 Std. -
Do, 23.05. 20:00 0.0 l/m2 in 12 Std. -
Do, 23.05. 14:00 0.0 l/m2 in 6 Std. -
Do, 23.05. 8:00 0.1 l/m2 in 12 Std. -
Do, 23.05. 2:00 0.1 l/m2 in 6 Std. Regen
Mi, 22.05. 20:00 6 l/m2 in 12 Std. Regen
Mi, 22.05. 14:00 4 l/m2 in 6 Std. Regen
Mi, 22.05. 8:00 9 l/m2 in 12 Std. Regen
Ortszeit Niederschlagsmenge Niederschlagsart
Fr, 24.05. 6:30 0.0 l/m2 in 30 Min -
Fr, 24.05. 6:10 keine Meldung -
Fr, 24.05. 6:00 0.0 l/m2 in 1 Std. -
Fr, 24.05. 5:50 keine Meldung -
Fr, 24.05. 5:40 keine Meldung -
Fr, 24.05. 5:30 0.0 l/m2 in 30 Min -
Fr, 24.05. 5:00 0.0 l/m2 in 1 Std. -
Fr, 24.05. 4:30 0.0 l/m2 in 30 Min -
Fr, 24.05. 4:00 0.0 l/m2 in 1 Std. -
Fr, 24.05. 3:30 0.0 l/m2 in 30 Min -
Fr, 24.05. 3:00 0.0 l/m2 in 1 Std. -
Fr, 24.05. 2:30 0.0 l/m2 in 30 Min -
Ortszeit Stärke Spitze Richtung
km/h Bft. km/h Grad Sektor
Fr, 24.05. 2:00 4 1 7 80° O
Do, 23.05. 20:00 6 1 31 270° W
Do, 23.05. 14:00 24 4 35 250° W
Do, 23.05. 8:00 11 2 22 220° SW
Do, 23.05. 2:00 6 1 9 210° SW
Mi, 22.05. 20:00 6 1 22 240° SW
Mi, 22.05. 14:00 7 2 25 250° W
Mi, 22.05. 8:00 7 2 29 220° SW
Ortszeit Stärke Spitze Richtung
km/h Bft. km/h Grad Sektor
Fr, 24.05. 6:30 4 1 4 70° O
Fr, 24.05. 6:10 4 1 - 70° O
Fr, 24.05. 6:00 4 1 11 20° N
Fr, 24.05. 5:50 4 1 - 20° N
Fr, 24.05. 5:40 4 1 - 70° O
Fr, 24.05. 5:30 6 1 6 80° O
Fr, 24.05. 5:00 4 1 7 60° NO
Fr, 24.05. 4:30 4 1 7 10° N
Fr, 24.05. 4:00 0 0 4 - -
Fr, 24.05. 3:30 0 0 4 - -
Fr, 24.05. 3:00 4 1 7 150° SO
Fr, 24.05. 2:30 2 1 6 170° S
Ortszeit Untergrenze Bedeckung Gattung
total tief tief mittel hoch
Fr, 24.05. 2:00 7800 m 8/8 0/8 - - -
Do, 23.05. 20:00 - 0/8 0/8 - - -
Do, 23.05. 14:00 1050 m 7/8 7/8 - - -
Do, 23.05. 8:00 5100 m 2/8 2/8 - - -
Do, 23.05. 2:00 3900 m 8/8 8/8 - - -
Mi, 22.05. 20:00 3000 m 8/8 8/8 - - -
Mi, 22.05. 14:00 1320 m 8/8 8/8 - - -
Mi, 22.05. 8:00 210 m 8/8 8/8 - - -
Ortszeit Bedeckungsgrad in Achtel und Wolkenuntergrenze
Fr, 24.05. 6:30 keine Wolken
Fr, 24.05. 6:10 keine Wolken
Fr, 24.05. 6:00 3(10500m)
Fr, 24.05. 5:50 3(10500m)
Fr, 24.05. 5:40 5
Fr, 24.05. 5:30 3(9000m)
Fr, 24.05. 5:00 8(9000m)
Fr, 24.05. 4:30 4(9000m)
Fr, 24.05. 4:00 5(9000m)
Fr, 24.05. 3:30 4(9000m)
Fr, 24.05. 3:00 keine Wolken
Fr, 24.05. 2:30 3(9000m)
Ortszeit Luftdruck NN (hPa) Tendenz (hPa in 3 Std.)
Fr, 24.05. 2:00 1018 + 0,8
Do, 23.05. 20:00 1016 + 0,5
Do, 23.05. 14:00 1015 + 0,8
Do, 23.05. 8:00 1013 + 1,2
Do, 23.05. 2:00 1011 - 0,1
Mi, 22.05. 20:00 1010 + 0,7
Mi, 22.05. 14:00 1009 + 1,7
Mi, 22.05. 8:00 1005 + 0,8
Ortszeit Luftdruck NN (hPa) Tendenz (hPa in 3 Std.)
Fr, 24.05. 6:30 1019 + 0,7
Fr, 24.05. 6:10 1019 keine Meldung
Fr, 24.05. 6:00 1019 + 0,5
Fr, 24.05. 5:50 1019 keine Meldung
Fr, 24.05. 5:40 1019 keine Meldung
Fr, 24.05. 5:30 1019 + 0,4
Fr, 24.05. 5:00 1019 + 0,5
Fr, 24.05. 4:30 1019 + 0,4
Fr, 24.05. 4:00 1019 + 0,7
Fr, 24.05. 3:30 1018 + 0,6
Fr, 24.05. 3:00 1018 + 0,6
Fr, 24.05. 2:30 1018 + 0,6
Ortszeit Schneehöhe (cm)
Fr, 24.05. 2:00 -
Do, 23.05. 20:00 -
Do, 23.05. 14:00 -
Do, 23.05. 8:00 -
Do, 23.05. 2:00 -
Mi, 22.05. 20:00 -
Mi, 22.05. 14:00 -
Mi, 22.05. 8:00 -
Ortszeit Schneehöhe (cm)
Fr, 24.05. 6:30 -
Fr, 24.05. 6:10 -
Fr, 24.05. 6:00 -
Fr, 24.05. 5:50 -
Fr, 24.05. 5:40 -
Fr, 24.05. 5:30 -
Fr, 24.05. 5:00 -
Fr, 24.05. 4:30 -
Fr, 24.05. 4:00 -
Fr, 24.05. 3:30 -
Fr, 24.05. 3:00 -
Fr, 24.05. 2:30 -
Link zu dieser Seite / Seite empfehlen

Das Wetter in ...